This demonstration page uses our WeatherBlox Daily Observations layout. Learn more.

Left ArrowRight Arrow

Hourly Observations for April 25, 2015

Temp ( °F °C ) Dew Point ( °F °C ) Humidity (%) Winds ( mph kmh ) Pressure ( in mb ) Visibility ( mi km ) Precip ( " mm )
12:16 am 00:16 Cloudy 54 12 23 -5 30 30 ESE 5 7 29.88 1012 10 16.0934 N/A
12:36 am 00:36 Cloudy 54 12 21 -6 28 28 Calm 29.88 1012 10 16.0934 N/A
12:56 am 00:56 Cloudy 54 12 28 -2 38 38 E 5 7 29.88 1012 10 16.0934 N/A
1:15 am 01:15 Mostly Cloudy 52 11 28 -2 41 41 E 5 7 29.88 1012 10 16.0934 N/A
1:36 am 01:36 Mostly Cloudy 54 12 27 -3 35 35 Calm 29.88 1012 10 16.0934 N/A
1:56 am 01:56 Partly Cloudy 52 11 28 -2 41 41 SSW 8 13 29.88 1012 10 16.0934 N/A
2:15 am 02:15 Partly Cloudy 54 12 27 -3 35 35 S 9 15 29.88 1012 10 16.0934 N/A
2:36 am 02:36 Mostly Cloudy 52 11 28 -2 41 41 ESE 7 11 29.88 1012 10 16.0934 N/A
2:56 am 02:56 Cloudy 52 11 32 0 47 47 E 8 13 29.85 1011 10 16.0934 N/A
3:15 am 03:15 Cloudy 52 11 32 0 47 47 ESE 9 15 29.85 1011 10 16.0934 N/A
3:36 am 03:36 Cloudy 52 11 32 0 47 47 ESE 7 11 29.85 1011 10 16.0934 N/A
3:56 am 03:56 Cloudy 50 10 36 2 58 58 ESE 9 15 29.83 1010 10 16.0934 N/A
4:16 am 04:16 Cloudy 50 10 36 2 58 58 ESE 9 15 29.83 1010 10 16.0934 N/A
4:36 am 04:36 Cloudy 50 10 36 2 58 58 SE 8 13 29.83 1010 10 16.0934 N/A
4:56 am 04:56 Cloudy 50 10 36 2 58 58 SE 8 13 29.83 1010 10 16.0934 N/A
5:16 am 05:16 Cloudy 50 10 36 2 58 58 SE 9 15 29.83 1010 10 16.0934 N/A
5:36 am 05:36 Partly Cloudy 50 10 36 2 58 58 ESE 12 19 29.8 1009 10 16.0934 N/A
5:56 am 05:56 Mostly Cloudy 48 9 36 2 62 62 SE 9 15 29.83 1010 10 16.0934 N/A
6:16 am 06:16 Cloudy 48 9 36 2 62 62 SE 8 13 29.83 1010 10 16.0934 N/A
6:36 am 06:36 Cloudy 48 9 37 3 66 66 ESE 7 11 29.83 1010 10 16.0934 N/A
6:56 am 06:56 Cloudy 48 9 37 3 66 66 ESE 10 17 29.8 1009 10 16.0934 N/A
7:16 am 07:16 Cloudy 48 9 37 3 66 66 SE 9 15 29.8 1009 10 16.0934 N/A
7:36 am 07:36 Cloudy 48 9 36 2 62 62 ESE 12 19 29.8 1009 10 16.0934 N/A
7:56 am 07:56 Cloudy 48 9 37 3 66 66 ESE 8 13 29.83 1010 7 11.26538 N/A
8:16 am 08:16 Mostly Cloudy 48 9 37 3 66 66 ESE 8 13 29.8 1009 10 16.0934 N/A
8:36 am 08:36 Cloudy 46 8 41 5 82 82 E 10 17 29.8 1009 4 6.43736 N/A
8:56 am 08:56 Mostly Cloudy 48 9 39 4 71 71 E 13 20 29.8 1009 10 16.0934 N/A
9:16 am 09:16 Mostly Cloudy 48 9 37 3 66 66 E 13 20 29.8 1009 10 16.0934 N/A
9:36 am 09:36 Cloudy 48 9 36 2 62 62 E 16 26 29.74 1007 10 16.0934 N/A
9:56 am 09:56 Cloudy 48 9 36 2 62 62 E 15 24 29.71 1006 10 16.0934 N/A
10:16 am 10:16 Cloudy 48 9 36 2 62 62 ESE 15 24 29.71 1006 10 16.0934 N/A
10:36 am 10:36 Cloudy 48 9 36 2 62 62 E 12 19 29.71 1006 10 16.0934 N/A
10:56 am 10:56 Cloudy 48 9 36 2 62 62 E 10 17 29.71 1006 10 16.0934 N/A
11:16 am 11:16 Cloudy 46 8 36 2 66 66 E 14 22 29.74 1007 5 8.0467 N/A
11:36 am 11:36 Cloudy 46 8 39 4 76 76 E 15 24 29.74 1007 7 11.26538 N/A
11:56 am 11:56 Cloudy 46 8 39 4 76 76 ESE 16 26 29.71 1006 7 11.26538 N/A
12:16 pm 12:16 Cloudy 46 8 41 5 82 82 ESE 12 19 29.74 1007 7 11.26538 N/A
12:36 pm 12:36 Cloudy 45 7 45 7 100 100 E 18 30 29.71 1006 3 4.82802 N/A
12:56 pm 12:56 Cloudy 45 7 N/A N/A E 17 28 29.71 1006 5 8.0467 N/A
1:16 pm 13:16 Cloudy 45 7 N/A N/A E 15 24 29.71 1006 4 6.43736 N/A
1:35 pm 13:35 Cloudy 45 7 N/A N/A E 14 22 29.71 1006 2.5 4.02335 N/A
1:56 pm 13:56 Cloudy 45 7 N/A N/A ENE 10 17 29.74 1007 1.25 2.011675 N/A
2:16 pm 14:16 Cloudy 43 6 N/A N/A ENE 10 17 29.74 1007 2.5 4.02335 N/A
2:35 pm 14:35 Cloudy 43 6 N/A N/A ENE 23 37 29.68 1005 2.5 4.02335 N/A
2:56 pm 14:56 Cloudy 43 6 N/A N/A E 23 37 29.68 1005 3 4.82802 N/A
3:16 pm 15:16 Cloudy 43 6 N/A N/A E 16 26 29.68 1005 5 8.0467 N/A
3:36 pm 15:36 Cloudy 43 6 N/A N/A ENE 14 22 29.71 1006 10 16.0934 N/A
3:56 pm 15:56 Cloudy 43 6 N/A N/A E 15 24 29.71 1006 10 16.0934 N/A
4:15 pm 16:15 Cloudy 43 6 N/A N/A E 9 15 29.71 1006 7 11.26538 N/A
4:36 pm 16:36 Cloudy 43 6 N/A N/A ENE 15 24 29.68 1005 5 8.0467 N/A
4:56 pm 16:56 Cloudy 45 7 N/A N/A E 14 22 29.68 1005 10 16.0934 N/A
5:15 pm 17:15 Cloudy 45 7 N/A N/A E 12 19 29.68 1005 10 16.0934 N/A
5:36 pm 17:36 Cloudy 45 7 N/A N/A E 15 24 29.68 1005 10 16.0934 N/A
5:56 pm 17:56 Cloudy 46 8 N/A N/A E 15 24 29.62 1003 10 16.0934 N/A
6:15 pm 18:15 Cloudy 46 8 N/A N/A E 13 20 29.68 1005 10 16.0934 N/A
6:36 pm 18:36 Cloudy 46 8 N/A N/A E 16 26 29.68 1005 10 16.0934 N/A
6:56 pm 18:56 Cloudy 46 8 N/A N/A E 14 22 29.68 1005 10 16.0934 N/A
7:15 pm 19:15 Cloudy 46 8 N/A N/A E 17 28 29.68 1005 10 16.0934 N/A
7:36 pm 19:36 Cloudy 46 8 N/A N/A E 12 19 29.68 1005 10 16.0934 N/A
7:56 pm 19:56 Cloudy 46 8 46 8 100 100 E 14 22 29.68 1005 10 16.0934 N/A
8:16 pm 20:16 Cloudy 46 8 43 6 87 87 ENE 13 20 29.68 1005 10 16.0934 N/A
8:36 pm 20:36 Cloudy 45 7 41 5 87 87 ENE 13 20 29.68 1005 10 16.0934 N/A
8:56 pm 20:56 Cloudy 45 7 45 7 100 100 NE 13 20 29.71 1006 10 16.0934 N/A
9:16 pm 21:16 Cloudy 45 7 41 5 87 87 ENE 16 26 29.68 1005 10 16.0934 N/A
9:36 pm 21:36 Cloudy 45 7 39 4 81 81 ENE 16 26 29.71 1006 10 16.0934 N/A
9:56 pm 21:56 Cloudy 45 7 43 6 93 93 NE 13 20 29.71 1006 7 11.26538 N/A
10:16 pm 22:16 Cloudy 45 7 N/A N/A ENE 15 24 29.71 1006 10 16.0934 N/A
10:36 pm 22:36 Cloudy 45 7 43 6 93 93 NE 12 19 29.74 1007 10 16.0934 N/A
10:56 pm 22:56 Cloudy 45 7 41 5 87 87 NE 13 20 29.74 1007 10 16.0934 N/A
11:16 pm 23:16 Cloudy 45 7 45 7 100 100 NE 14 22 29.74 1007 10 16.0934 N/A
11:36 pm 23:36 Cloudy 43 6 43 6 100 100 NE 16 26 29.77 1008 10 16.0934 N/A
11:56 pm 23:56 Cloudy 43 6 43 6 100 100 NE 17 28 29.77 1008 10 16.0934 N/A

Powered by AerisWeather